Estación de Río Bueno
Ultimos registro cada 15 minutos 41
| N° | Estación | Fecha / Hora | Temperatura | Humedad | Lluvia | Velocidad | Dirección | Radiación | Presion |
| 41 | Río Bueno | 04-05-2026 10:00 | 11 | 90,3 | 0 | 1 | 39 | 33,1 | 1010,7 |
| 40 | Río Bueno | 04-05-2026 09:45 | 10,9 | 90,5 | 0 | 1 | 45 | 38,1 | 1010,5 |
| 39 | Río Bueno | 04-05-2026 09:30 | 10,8 | 90,9 | 0 | 1 | 44 | 35,6 | 1010,5 |
| 38 | Río Bueno | 04-05-2026 09:15 | 10,7 | 90,9 | 0 | 1 | 42 | 39,4 | 1010,7 |
| 37 | Río Bueno | 04-05-2026 09:00 | 10,6 | 91,6 | 0 | 1 | 45 | 23,1 | 1010,7 |
| 36 | Río Bueno | 04-05-2026 08:45 | 10,6 | 91,7 | 0 | 1 | 39 | 14,4 | 1010,9 |
| 35 | Río Bueno | 04-05-2026 08:30 | 10,5 | 92,1 | 0 | 0,7 | 28 | 10,6 | 1010,7 |
| 34 | Río Bueno | 04-05-2026 08:15 | 10,4 | 92,2 | 0 | 1 | 27 | 5,6 | 1010,8 |
| 33 | Río Bueno | 04-05-2026 08:00 | 10,4 | 92,4 | 0 | 1 | 24 | 1,9 | 1010,5 |
| 32 | Río Bueno | 04-05-2026 07:45 | 10,3 | 92,9 | 0 | 1 | 21 | 0,6 | 1010,4 |
| 31 | Río Bueno | 04-05-2026 07:30 | 10,3 | 93,3 | 0 | 1 | 32 | 0,6 | 1010,5 |
| 30 | Río Bueno | 04-05-2026 07:15 | 10,3 | 92,4 | 0 | 0,7 | 34 | 0,6 | 1010,5 |
| 29 | Río Bueno | 04-05-2026 07:00 | 10,3 | 91,9 | 0 | 0,7 | 28 | 0,6 | 1010,6 |
| 28 | Río Bueno | 04-05-2026 06:45 | 10,4 | 91,6 | 0 | 1 | 25 | 0,6 | 1010,4 |
| 27 | Río Bueno | 04-05-2026 06:30 | 10,3 | 92,2 | 0 | 1 | 21 | 0,6 | 1010,2 |
| 26 | Río Bueno | 04-05-2026 06:15 | 10,3 | 92,4 | 0 | 1 | 22 | 0,6 | 1010,2 |
| 25 | Río Bueno | 04-05-2026 06:00 | 10,2 | 93 | 0 | 1 | 20 | 0,6 | 1010,4 |
| 24 | Río Bueno | 04-05-2026 05:45 | 10,2 | 93,5 | 0 | 1,3 | 21 | 0,6 | 1010,3 |
| 23 | Río Bueno | 04-05-2026 05:30 | 10,2 | 94,1 | 0 | 1,3 | 28 | 0,6 | 1010,3 |
| 22 | Río Bueno | 04-05-2026 05:15 | 10,1 | 94,3 | 0 | 0,7 | 27 | 0,6 | 1010,6 |
| 21 | Río Bueno | 04-05-2026 05:00 | 10 | 93,9 | 0,2 | 0,7 | 49 | 0,6 | 1010,8 |
| 20 | Río Bueno | 04-05-2026 04:45 | 10,1 | 93,2 | 0,2 | 0,7 | 42 | 0,6 | 1010,9 |
| 19 | Río Bueno | 04-05-2026 04:30 | 10,1 | 92,8 | 0 | 1 | 35 | 0,6 | 1010,9 |
| 18 | Río Bueno | 04-05-2026 04:15 | 10 | 93,3 | 0 | 0,7 | 44 | 0,6 | 1010,7 |
| 17 | Río Bueno | 04-05-2026 04:00 | 9,9 | 93,5 | 0 | 0,7 | 38 | 0,6 | 1011 |
| 16 | Río Bueno | 04-05-2026 03:45 | 9,8 | 93,7 | 0 | 0,3 | 31 | 0,6 | 1011,3 |
| 15 | Río Bueno | 04-05-2026 03:30 | 9,8 | 93,5 | 0 | 0,3 | 31 | 0,6 | 1011,3 |
| 14 | Río Bueno | 04-05-2026 03:15 | 10,1 | 93,5 | 0 | 1 | 29 | 0,6 | 1011,5 |
| 13 | Río Bueno | 04-05-2026 03:00 | 10,1 | 94,5 | 0 | 0,3 | 21 | 0,6 | 1011,5 |
| 12 | Río Bueno | 04-05-2026 02:45 | 9,9 | 95,4 | 0 | 0,3 | 41 | 0,6 | 1011,6 |
| 11 | Río Bueno | 04-05-2026 02:30 | 9,8 | 95,6 | 0 | 0,3 | 51 | 0,6 | 1011,9 |
| 10 | Río Bueno | 04-05-2026 02:15 | 9,4 | 95,4 | 0 | 0 | 55 | 0,6 | 1012 |
| 9 | Río Bueno | 04-05-2026 02:00 | 9,6 | 95,4 | 0 | 0,3 | 73 | 0,6 | 1012,1 |
| 8 | Río Bueno | 04-05-2026 01:45 | 9,3 | 95,2 | 0 | 0 | 104 | 0,6 | 1012,1 |
| 7 | Río Bueno | 04-05-2026 01:30 | 9,8 | 95,1 | 0 | 0,3 | 42 | 0,6 | 1012,3 |
| 6 | Río Bueno | 04-05-2026 01:15 | 9,8 | 95 | 0,2 | 0,3 | 41 | 0,6 | 1012,4 |
| 5 | Río Bueno | 04-05-2026 01:00 | 9,7 | 95 | 0 | 0 | 37 | 0,6 | 1012,4 |
| 4 | Río Bueno | 04-05-2026 00:45 | 9,5 | 94,8 | 0 | 0 | 37 | 0,6 | 1012,5 |
| 3 | Río Bueno | 04-05-2026 00:30 | 9,4 | 94,6 | 0 | 0 | 37 | 0,6 | 1012,6 |
| 2 | Río Bueno | 04-05-2026 00:15 | 9,3 | 94,4 | 0 | 0 | 37 | 0,6 | 1012,6 |
| 1 | Río Bueno | 04-05-2026 00:00 | 9,5 | 94,1 | 0 | 0 | 37 | 0,6 | 1012,6 |